SCP
0 0 0 0 0 0 0 0 0 1 1 2 2 2 3 4 5 6 7 9 10 11 9 8 9 13 16 15 13 12 11 10 9 8 7 7 7 9 11 14 14 12 9 7
0 0 0 0 0 0 0 0 0 1 1 2 3 3 4 5 6 7 7 8 8 9 8 7 8 12 15 17 16 16 14 13 11 9 8 8 8 9 11 13 14 12 9 8
1 1 1 1 1 0 0 0 0 1 1 2 3 3 4 5 5 6 7 7 7 6 6 6 7 10 15 18 19 18 15 13 12 10 9 9 9 10 11 12 13 11 9 8
1 1 1 1 1 1 1 1 1 1 1 2 3 4 5 6 6 6 6 6 6 5 5 5 6 9 14 18 20 19 15 13 12 12 11 10 11 12 12 12 11 10 9 9
1 1 1 1 2 1 1 2 2 3 2 2 3 5 6 7 7 6 6 6 5 4 5 7 8 10 14 17 19 18 14 13 15 15 13 12 13 14 14 13 10 9 9 9
1 1 1 2 2 2 2 3 4 4 4 3 4 6 7 7 7 6 6 5 5 5 6 8 10 13 16 17 16 13 12 14 17 18 16 15 14 14 14 11 9 7 8 8
1 1 1 2 2 3 3 3 4 4 4 5 6 6 8 8 7 6 6 6 5 6 8 10 13 17 18 15 11 9 9 12 17 19 17 16 15 13 11 9 7 6 7 8
2 2 2 2 3 4 4 4 3 3 4 6 7 8 9 9 7 6 7 7 8 9 11 12 14 15 14 10 7 6 7 11 16 17 14 13 12 10 8 6 5 5 6 8
2 2 2 2 3 4 4 3 3 3 4 6 7 8 9 8 7 7 7 8 9 11 12 13 12 10 8 6 5 5 7 11 14 12 10 9 8 7 6 5 4 5 7 8
2 2 2 2 3 3 3 3 3 3 4 6 8 9 9 8 7 7 7 8 8 10 10 9 8 7 5 5 5 6 7 9 10 9 8 7 6 4 4 4 4 5 7 9
2 2 3 3 2 2 2 2 3 3 5 7 11 12 9 7 6 6 6 7 7 7 6 6 5 4 4 4 5 5 6 7 9 9 8 6 4 3 3 3 4 5 7 8
2 3 4 4 3 2 3 4 5 6 7 10 13 12 9 7 6 6 6 6 6 5 5 4 4 4 5 5 4 4 5 6 9 9 7 5 4 3 2 2 2 3 4 5
2 3 4 4 4 4 5 7 9 9 11 13 14 12 9 8 7 7 7 7 6 6 5 5 5 6 6 6 6 5 5 6 8 8 6 5 4 3 2 2 1 1 1 1
2 3 3 3 4 5 7 8 9 10 12 14 13 10 8 7 7 7 8 8 7 6 6 6 6 7 8 8 7 6 5 6 7 7 5 4 4 4 3 3 2 1 0 0
3 3 4 3 3 4 5 6 7 9 11 12 10 7 5 5 6 7 8 8 7 7 7 7 7 8 9 9 7 6 5 4 5 5 4 4 5 5 5 4 3 2 1 1
4 4 4 4 3 3 3 4 5 6 7 7 6 5 4 5 6 8 8 8 8 8 8 8 9 9 8 7 6 5 4 3 2 2 2 3 5 5 5 4 3 2 1 1
3 4 4 4 4 3 3 4 4 5 5 6 5 5 5 6 7 7 7 7 8 8 8 8 8 9 7 6 5 4 3 3 3 2 3 4 5 5 6 5 4 3 2 1
3 3 4 4 4 3 3 3 4 4 5 5 5 5 5 6 7 7 6 7 7 9 9 8 7 7 6 5 4 4 3 5 5 4 3 4 4 4 6 6 4 3 2 1
3 3 3 3 3 3 3 3 3 3 3 3 4 4 5 6 6 6 6 6 7 8 8 7 5 5 4 3 3 4 5 5 5 3 3 3 3 4 6 6 5 3 2 1
3 3 3 3 3 2 2 3 3 3 3 3 3 3 4 5 4 4 5 5 5 6 5 4 3 3 3 2 2 3 3 3 2 2 1 2 2 4 5 5 5 3 2 1
2 2 3 3 3 2 2 3 4 4 3 3 3 3 4 4 3 3 3 4 3 3 3 2 2 2 2 2 1 2 2 1 1 1 1 1 2 4 5 4 4 3 2 1
2 2 3 3 3 2 2 2 3 3 3 3 3 3 3 3 3 3 3 2 2 2 2 2 2 1 1 1 2 2 2 2 1 1 1 1 2 3 4 4 3 3 2 1
2 3 3 3 2 2 2 2 2 2 3 2 2 3 3 4 3 3 2 2 1 1 1 2 1 1 1 1 1 2 2 2 1 1 1 1 2 3 3 3 3 2 1 1
3 3 3 3 2 2 2 2 2 2 2 2 2 3 3 3 2 2 2 1 1 1 1 1 1 0 0 1 1 1 1 1 1 1 1 1 1 2 2 2 2 1 1 1
3 3 3 2 2 2 2 2 2 2 2 2 2 2 2 2 1 1 1 1 1 0 1 1 0 0 0 1 1 0 0 0 0 0 0 1 1 1 2 2 1 1 1 1
3 3 2 2 2 2 2 2 2 2 2 2 2 1 1 1 1 1 1 1 1 1 1 1 0 0 0 1 1 0 0 0 0 0 0 0 1 1 1 1 1 1 1 1
2 2 2 1 1 2 2 2 2 2 2 2 2 1 1 1 1 1 1 1 1 1 1 1 0 0 0 0 1 0 0 0 0 0 0 0 1 1 1 1 1 1 1 1
Wind_Speed
14 15 14 12 11 11 11 10 10 8 4 1 4 5 4 4 4 5 5 5 5 5 4 4 3 2 2 2 2 2 2 2 2 1 1 1 1 1 1 1 1 1 2 2
14 16 15 14 12 11 11 11 11 8 4 1 4 5 5 4 3 4 5 5 4 4 4 3 2 1 1 1 2 2 2 1 1 1 1 1 1 1 0 1 1 1 1 1
13 14 15 14 11 10 9 9 9 7 4 1 3 3 4 3 1 2 3 4 3 2 3 2 2 1 1 0 1 2 2 1 1 1 1 1 1 0 1 1 1 1 2 1
12 13 16 9 8 9 8 8 8 6 2 1 1 3 5 5 4 2 3 3 2 2 2 1 1 1 0 0 1 1 1 1 0 1 1 1 1 1 1 1 1 2 2 2
10 12 12 9 7 7 6 5 6 6 4 2 2 1 4 4 4 4 3 3 2 1 1 2 2 1 1 1 1 1 1 1 1 1 1 1 1 1 1 1 2 2 2 2
11 13 11 6 7 8 6 3 6 7 6 3 2 2 2 4 4 3 3 2 2 1 1 2 2 2 1 1 1 1 1 0 1 1 1 1 1 1 1 2 2 2 1 1
12 13 7 6 8 7 5 3 7 7 7 5 3 3 4 5 3 2 2 2 2 2 2 3 3 2 2 2 2 2 2 2 2 1 1 1 0 1 1 2 2 2 2 2
8 11 6 8 6 4 4 5 7 7 6 6 5 4 4 5 4 2 2 2 2 2 3 3 2 2 2 2 2 2 2 2 1 1 2 1 1 1 2 2 3 2 2 3
3 3 3 7 6 5 4 4 5 6 6 4 3 2 2 3 2 2 1 1 1 2 2 2 2 2 1 2 2 2 1 1 1 1 1 1 1 2 2 2 2 2 2 2
4 2 1 4 6 7 7 5 5 6 6 6 4 3 2 1 1 1 1 0 0 0 1 1 1 1 1 1 2 1 1 1 1 1 1 1 1 1 2 2 2 2 2 2
7 6 5 4 4 6 7 6 5 5 6 7 5 4 3 1 1 1 0 0 0 0 0 0 1 1 1 1 1 2 2 2 3 2 1 0 1 1 1 1 1 2 2 2
6 5 5 4 5 7 7 7 6 6 5 5 5 5 4 3 1 1 1 1 0 0 1 0 0 0 1 1 1 2 2 2 3 2 1 1 1 1 2 1 0 1 1 2
5 6 5 5 6 7 6 7 7 6 4 4 4 4 3 2 1 1 1 1 1 1 1 1 1 0 1 1 2 2 3 3 3 3 2 2 2 2 1 1 1 2 2 3
4 5 5 5 5 6 7 7 7 6 4 3 3 3 3 2 2 1 1 2 2 1 1 1 1 1 1 2 1 2 3 3 3 3 3 3 3 3 3 2 1 1 2 4
4 5 6 6 6 6 7 7 6 5 4 4 3 3 3 2 1 1 1 2 2 1 1 1 1 1 1 2 2 3 3 2 2 2 3 3 3 3 3 2 1 1 1 1
5 5 6 5 5 5 6 6 6 4 4 4 4 3 2 2 1 1 1 1 2 2 1 1 1 1 1 1 2 2 1 2 3 3 4 3 2 3 3 2 2 1 1 1
5 5 5 5 5 5 6 5 6 5 5 5 5 5 3 1 1 1 1 1 1 1 1 0 1 1 1 1 2 2 2 2 3 3 3 3 3 3 3 2 2 1 1 1
5 6 5 5 4 5 5 5 5 5 5 5 5 4 3 2 1 1 1 1 1 1 1 1 1 1 1 1 2 3 2 2 2 2 2 2 3 3 3 2 2 2 1 1
4 4 4 4 4 3 3 4 4 5 4 4 4 4 3 2 2 2 2 1 1 1 1 1 1 2 1 2 3 3 3 2 2 2 2 2 3 3 3 2 2 2 1 1
4 3 3 3 3 3 3 4 4 4 3 3 3 3 2 2 2 2 1 1 1 1 1 0 1 1 2 2 4 3 3 2 2 2 2 2 2 3 3 3 2 2 2 1
3 3 3 3 3 3 3 4 4 4 3 3 3 3 2 2 2 1 1 1 1 1 2 1 1 2 2 3 4 3 2 2 2 2 2 2 2 2 3 2 2 2 2 2
3 3 4 4 3 3 3 3 3 3 3 3 2 2 2 2 2 1 1 1 0 1 1 1 1 2 4 4 2 2 2 2 2 2 2 2 2 2 2 2 2 2 2 2
3 3 3 4 3 3 3 3 3 2 2 2 2 2 2 1 2 1 1 1 1 1 1 1 2 3 4 3 3 2 2 2 3 2 2 2 2 1 2 2 2 2 2 2
3 3 3 4 3 3 3 3 2 2 2 2 1 1 1 1 0 0 1 2 2 1 1 1 1 2 4 3 3 3 2 2 2 2 2 2 2 1 1 1 2 2 2 2
2 3 3 3 3 3 3 3 2 2 2 1 1 0 1 1 1 1 1 1 2 1 0 0 2 3 3 2 2 2 2 2 3 3 3 2 2 2 2 2 2 2 2 2
2 2 2 2 3 3 3 2 2 1 1 2 1 1 1 1 1 1 0 0 1 1 1 1 1 1 2 2 2 2 2 1 2 2 2 2 2 2 2 2 3 2 2 2
3 3 2 3 2 2 2 3 2 2 2 2 2 2 1 1 1 1 1 1 0 1 1 1 1 1 1 1 1 2 2 2 2 2 2 2 2 2 2 2 2 2 2 2
Wind_Direction
273 275 276 277 266 262 264 271 279 285 281 206 140 139 145 145 130 123 122 112 111 115 112 114 121 122 115 127 129 140 155 170 156 176 194 208 210 199 182 244 270 288 291 300
277 272 273 273 272 268 266 267 268 275 290 18 109 113 116 108 118 133 122 110 104 110 109 111 107 103 123 128 138 139 156 161 150 175 184 213 236 195 183 254 274 287 288 300
279 281 278 269 268 265 267 272 277 279 305 25 65 88 96 95 80 126 127 119 106 109 119 126 126 110 78 63 144 163 166 166 157 169 203 237 253 236 235 256 260 256 277 278
276 278 270 271 287 282 277 282 283 284 291 318 219 137 129 136 151 175 129 120 107 108 125 145 136 123 123 216 160 158 167 157 183 198 221 233 227 241 244 252 258 262 266 274
272 270 265 266 284 294 288 295 317 316 330 3 6 107 111 103 112 114 105 102 92 76 106 86 70 59 342 271 221 175 211 213 224 238 247 249 231 238 255 260 260 270 280 283
268 274 274 301 318 320 290 262 355 347 346 2 332 262 119 94 92 101 93 92 98 105 77 79 71 62 10 326 336 352 324 320 309 290 264 268 266 271 277 267 267 271 264 270
261 268 273 312 318 316 287 352 359 357 360 354 6 11 91 100 98 122 132 125 118 104 84 71 71 67 30 14 9 8 8 7 354 329 287 258 267 288 288 282 269 260 257 254
257 262 269 342 330 8 21 3 351 357 355 1 13 45 86 101 104 112 97 95 97 98 92 83 76 66 28 14 2 355 0 358 342 328 298 315 322 279 275 275 271 254 248 252
284 288 1 358 15 16 360 345 341 337 340 342 326 8 51 92 109 122 113 101 101 97 93 93 82 64 15 3 353 347 354 331 310 309 322 323 297 290 283 266 271 281 282 272
281 244 282 342 356 345 333 331 332 333 334 328 336 354 8 28 84 120 136 127 141 118 88 67 62 51 35 7 346 331 324 310 279 258 239 230 273 283 287 299 303 313 320 325
274 280 291 299 317 318 318 325 330 335 336 336 344 335 341 345 13 348 23 148 249 182 116 59 53 25 18 3 337 306 291 282 281 274 265 277 297 317 288 312 294 283 318 328
280 309 297 302 318 314 318 326 327 325 327 332 328 320 319 318 345 351 3 358 353 188 238 229 125 55 0 329 300 287 281 277 280 280 262 242 233 310 10 282 261 181 204 240
311 320 324 328 313 315 317 315 312 307 304 311 315 310 308 312 313 334 359 0 303 272 250 221 206 224 278 281 267 265 267 273 275 274 262 251 248 244 257 269 264 261 247 232
328 325 313 313 315 325 315 311 311 310 313 318 317 314 310 308 310 310 319 304 289 272 274 268 253 270 291 286 265 268 271 267 272 277 277 270 265 261 259 258 242 237 241 234
312 304 300 307 311 311 305 304 303 309 320 320 315 306 296 297 289 286 292 289 287 276 275 289 307 307 308 296 283 278 287 293 296 291 285 282 279 277 277 273 260 242 249 256
295 294 294 292 294 300 305 308 312 317 316 309 310 306 290 274 274 289 291 289 279 285 320 333 309 305 304 309 306 292 293 300 292 291 285 289 292 288 285 284 289 289 299 319
287 286 289 291 297 301 300 306 308 311 317 316 316 315 304 282 272 277 297 307 310 320 346 10 346 344 341 325 308 295 289 284 277 282 292 303 307 304 302 299 298 308 312 323
279 284 290 294 297 302 306 313 322 328 331 330 326 322 316 312 312 318 295 287 307 11 27 48 33 344 319 316 297 279 272 276 283 294 305 307 303 301 296 297 302 297 284 262
284 287 291 303 312 310 313 317 319 317 320 319 319 318 319 326 319 300 295 279 254 263 347 8 312 276 296 312 302 276 269 263 272 281 285 280 279 292 300 298 296 294 313 307
283 282 289 308 309 303 301 299 299 302 312 318 322 317 317 316 311 301 307 309 316 319 300 328 284 284 292 307 300 282 282 281 278 279 286 291 299 304 304 309 316 325 331 334
308 302 302 299 304 311 311 313 314 311 314 313 310 305 298 292 291 286 268 274 338 340 304 272 282 303 308 311 287 283 282 282 286 289 294 299 304 304 311 325 336 348 352 355
328 338 330 321 319 319 318 316 318 313 305 307 303 300 294 291 288 291 298 266 283 334 284 297 325 341 327 307 290 291 291 295 292 287 291 297 306 318 323 331 335 346 355 354
332 332 333 332 324 315 317 318 315 309 308 313 307 300 303 313 301 293 317 6 12 342 295 355 10 358 330 302 302 307 315 308 304 304 304 301 310 331 342 341 344 349 350 353
329 332 330 329 317 306 301 300 306 307 308 294 287 289 281 273 311 14 31 81 77 97 338 43 33 333 302 293 309 309 315 318 317 323 320 318 331 349 357 347 342 351 359 3
318 315 310 307 293 284 283 280 274 270 276 285 279 329 332 12 41 39 32 44 78 109 281 224 237 256 271 303 311 316 334 341 337 333 333 342 350 347 343 345 347 353 356 360
273 280 300 294 294 293 293 293 292 299 313 328 335 7 35 49 74 109 116 99 76 175 261 297 283 245 269 289 315 327 332 332 323 310 325 337 338 339 352 358 5 2 359 360
249 248 246 262 276 286 303 309 320 340 347 351 347 348 8 27 34 21 6 351 329 270 278 280 284 286 304 323 334 334 332 326 325 327 337 341 346 357 0 356 353 358 355 358